Location: Oberwangen
(47.4286°N, 8.9679°E)
Time: 11:17:09
(UTC+00:00)

Cosmos 1816 Rocket - Pass Details

Date: 23 October 2021
Orbit: 952 x 998 km, 82.9° (Epoch: 08 December)

Event Time Altitude Azimuth Distance (km) Brightness Sun altitude
Rises 19:39:27 0° 349° (N) 3,648 7.9 -33.7°
Reaches altitude 10° 19:41:57 10° 348° (NNW) 2,702 7.1 -34.1°
Enters shadow 19:46:09 45° 337° (NNW) 1,286 5.3 -34.8°
